KPDX

Portland International Airport

Airport
ICAO code
KPDX
Summary
ICAO Region
NAM
ICAO Territory
Location

Portland, Oregon,

Coordinates
45° 35' 17" N , 122° 35' 47" W
KCC
Airport BS
Bird Strike
Metar
Observation
KPDX 062253Z 00000KT 7SM FEW012 BKN055 06/02 A3018 RMK AO2 SLP221 T00610022
Station
Portland, Portland International Airport
Date/Time
2022-12-06 22:53:00
Wind direction
Wind speed
00 kts
Lowest cloud amount
few clouds
Temperature
6.1°C
Dew point
2.2°C
Humidity
76%
Weather condition
n/a

Description

Portland International Airport is located on the south side of the Columbia River within the current city limits of Portland in Multnomah County, six miles by air northeast of downtown Portland. Portland International Airport is often referred to by its IATA airport code, PDX.

Climatology

Oceanic/Dry-summer subtropical ”Mediterranean" climate (Köppen climate classification Csb) - characterized by warm, dry summers and mild winters.

Runways

Designator Length Width Surface Rops
3/21 2134 46 ASP Yes/Yes
10L/28R 2438 46 ASP Yes/Yes
10R/28L 3353 46 ASP Yes/Yes

Airport map

Aerial View

SKYbrary Partners:

Safety knowledge contributed by: